When you browse on this site, cookies collect data to enhance your experience and personalize the content and advertising you see.
Visit our Privacy Policy to learn more. By continuing to use the site, you agree to this use of cookies and data.
  • In Hungary
  • List of Countries
  • For 7 days
  • Water Temperature
  • Weather Map
  • News
  • Weather Widgets
  • user-avatar
    Login

    Hourly Weather Tahancha

    Today, 13 November, Wednesday

    Time Temperature Precipitation Wind Pressure Humidity
    00:00 +8°C° 0 mm 4 mps 754 mmHg 88%
    01:00 +7°C° 0 mm 4 mps 754 mmHg 90%
    02:00 +8°C° 0 mm 3 mps 754 mmHg 91%
    03:00 +7°C° 0 mm 4 mps 754 mmHg 92%
    04:00 +7°C° 0 mm 4 mps 754 mmHg 92%
    05:00 +7°C° 0 mm 4 mps 754 mmHg 93%
    06:00 +7°C° 0 mm 4 mps 754 mmHg 93%
    07:00 +7°C° 0 mm 5 mps 754 mmHg 93%
    08:00 +8°C° 0 mm 5 mps 754 mmHg 93%
    09:00 +9°C° 0 mm 6 mps 753 mmHg 85%
    10:00 +11°C° 0 mm 7 mps 753 mmHg 76%
    11:00 +14°C° 0 mm 7 mps 753 mmHg 68%
    12:00 +15°C° 0 mm 7 mps 753 mmHg 63%
    13:00 +15°C° 0 mm 7 mps 752 mmHg 59%
    14:00 +16°C° 0 mm 7 mps 752 mmHg 54%
    15:00 +15°C° 0 mm 7 mps 752 mmHg 57%
    16:00 +14°C° 0 mm 6 mps 752 mmHg 59%
    17:00 +13°C° 0 mm 6 mps 751 mmHg 61%
    18:00 +11°C° 0 mm 6 mps 752 mmHg 63%
    19:00 +11°C° 0 mm 6 mps 752 mmHg 65%
    20:00 +10°C° 0 mm 6 mps 752 mmHg 67%
    21:00 +10°C° 0 mm 5 mps 752 mmHg 68%
    22:00 +9°C° 0 mm 5 mps 752 mmHg 70%
    23:00 +9°C° 0 mm 5 mps 752 mmHg 71%

    Tomorrow, 14 November, Thursday

    Time Temperature Precipitation Wind Pressure Humidity
    00:00 +8°C° 0 mm 5 mps 752 mmHg 73%
    01:00 +8°C° 0 mm 5 mps 752 mmHg 75%
    02:00 +7°C° 0 mm 4 mps 752 mmHg 78%
    03:00 +7°C° 0 mm 4 mps 752 mmHg 80%
    04:00 +7°C° 0 mm 4 mps 752 mmHg 81%
    05:00 +6°C° 0 mm 5 mps 752 mmHg 83%
    06:00 +6°C° 0 mm 5 mps 752 mmHg 84%
    07:00 +6°C° 0 mm 5 mps 752 mmHg 84%
    08:00 +6°C° 0 mm 5 mps 752 mmHg 84%
    09:00 +7°C° 0 mm 5 mps 752 mmHg 77%
    10:00 +8°C° 0 mm 5 mps 752 mmHg 70%
    11:00 +10°C° 0 mm 6 mps 752 mmHg 63%
    12:00 +10°C° 0 mm 6 mps 752 mmHg 59%
    13:00 +11°C° 0 mm 6 mps 752 mmHg 56%
    14:00 +11°C° 0 mm 6 mps 752 mmHg 52%
    15:00 +10°C° 0 mm 6 mps 752 mmHg 54%
    16:00 +9°C° 0 mm 5 mps 752 mmHg 55%
    17:00 +8°C° 0 mm 5 mps 751 mmHg 57%
    18:00 +8°C° 0 mm 5 mps 752 mmHg 55%
    19:00 +7°C° 0 mm 5 mps 752 mmHg 53%
    20:00 +7°C° 0 mm 5 mps 752 mmHg 51%
    21:00 +6°C° 0 mm 5 mps 752 mmHg 54%
    22:00 +6°C° 0 mm 5 mps 752 mmHg 56%
    23:00 +5°C° 0 mm 4 mps 753 mmHg 59%

    Day after tomorrow, 15 November, Friday

    Time Temperature Precipitation Wind Pressure Humidity
    00:00 +5°C° 0 mm 4 mps 753 mmHg 61%
    01:00 +4°C° 0 mm 4 mps 753 mmHg 63%
    02:00 +4°C° 0 mm 4 mps 753 mmHg 66%
    03:00 +4°C° 0 mm 4 mps 753 mmHg 67%
    04:00 +3°C° 0 mm 4 mps 753 mmHg 69%
    05:00 +3°C° 0 mm 4 mps 753 mmHg 70%
    06:00 +3°C° 0 mm 4 mps 753 mmHg 70%
    07:00 +3°C° 0 mm 4 mps 753 mmHg 69%
    08:00 +3°C° 0 mm 4 mps 753 mmHg 69%
    09:00 +3°C° 0 mm 5 mps 754 mmHg 67%
    10:00 +5°C° 0 mm 5 mps 754 mmHg 63%
    11:00 +6°C° 0 mm 5 mps 754 mmHg 58%
    12:00 +7°C° 0 mm 5 mps 754 mmHg 57%
    13:00 +7°C° 0 mm 5 mps 754 mmHg 55%
    14:00 +7°C° 0 mm 5 mps 754 mmHg 54%
    15:00 +7°C° 0 mm 4 mps 754 mmHg 58%
    16:00 +6°C° 0 mm 4 mps 754 mmHg 62%
    17:00 +5°C° 0 mm 3 mps 754 mmHg 66%
    18:00 +5°C° 0 mm 3 mps 754 mmHg 68%
    19:00 +5°C° 0 mm 3 mps 754 mmHg 70%
    20:00 +4°C° 0 mm 3 mps 755 mmHg 72%
    21:00 +4°C° 0 mm 3 mps 755 mmHg 74%
    22:00 +4°C° 0 mm 3 mps 755 mmHg 75%
    23:00 +4°C° 0 mm 3 mps 755 mmHg 76%

    16 November, Saturday

    Time Temperature Precipitation Wind Pressure Humidity
    00:00 +3°C° 0 mm 3 mps 755 mmHg 77%
    01:00 +3°C° 0 mm 3 mps 756 mmHg 78%
    02:00 +3°C° 0 mm 3 mps 756 mmHg 79%
    03:00 +3°C° 0 mm 3 mps 756 mmHg 80%
    04:00 +2°C° 0 mm 3 mps 756 mmHg 81%
    05:00 +2°C° 0 mm 3 mps 756 mmHg 82%
    06:00 +2°C° 0 mm 3 mps 756 mmHg 82%
    07:00 +2°C° 0 mm 3 mps 756 mmHg 82%
    08:00 +2°C° 0 mm 3 mps 757 mmHg 83%
    09:00 +3°C° 0 mm 3 mps 757 mmHg 77%
    10:00 +4°C° 0 mm 4 mps 757 mmHg 71%
    11:00 +6°C° 0 mm 4 mps 757 mmHg 64%
    12:00 +6°C° 0 mm 4 mps 757 mmHg 63%
    13:00 +7°C° 0 mm 4 mps 757 mmHg 61%
    14:00 +7°C° 0 mm 4 mps 756 mmHg 59%
    15:00 +6°C° 0 mm 4 mps 756 mmHg 63%
    16:00 +5°C° 0 mm 3 mps 757 mmHg 68%
    17:00 +4°C° 0 mm 3 mps 757 mmHg 72%
    18:00 +4°C° 0 mm 3 mps 757 mmHg 73%
    19:00 +3°C° 0 mm 3 mps 757 mmHg 74%
    20:00 +3°C° 0 mm 3 mps 757 mmHg 75%
    21:00 +3°C° 0 mm 3 mps 757 mmHg 76%
    22:00 +3°C° 0 mm 3 mps 757 mmHg 77%
    23:00 +2°C° 0 mm 3 mps 758 mmHg 79%

    17 November, Sunday

    Time Temperature Precipitation Wind Pressure Humidity
    00:00 +2°C° 0 mm 3 mps 758 mmHg 79%
    01:00 +2°C° 0 mm 3 mps 758 mmHg 80%
    02:00 +2°C° 0 mm 3 mps 758 mmHg 81%
    03:00 +1°C° 0 mm 3 mps 758 mmHg 82%
    04:00 +1°C° 0 mm 3 mps 758 mmHg 83%
    05:00 +1°C° 0 mm 3 mps 758 mmHg 84%
    06:00 +1°C° 0 mm 3 mps 758 mmHg 84%
    07:00 0°C° 0 mm 4 mps 758 mmHg 85%
    08:00 0°C° 0 mm 4 mps 758 mmHg 85%
    09:00 +1°C° 0 mm 4 mps 758 mmHg 80%
    10:00 +3°C° 0 mm 4 mps 758 mmHg 74%
    11:00 +5°C° 0 mm 4 mps 758 mmHg 69%
    12:00 +5°C° 0 mm 5 mps 758 mmHg 67%
    13:00 +6°C° 0 mm 5 mps 758 mmHg 66%
    14:00 +6°C° 0 mm 5 mps 757 mmHg 65%
    15:00 +5°C° 0 mm 4 mps 757 mmHg 70%
    16:00 +5°C° 0 mm 4 mps 757 mmHg 74%
    17:00 +4°C° 0 mm 4 mps 757 mmHg 79%
    18:00 +3°C° 0 mm 4 mps 757 mmHg 80%
    19:00 +3°C° 0 mm 4 mps 757 mmHg 81%
    20:00 +3°C° 0 mm 4 mps 758 mmHg 82%
    21:00 +3°C° 0 mm 4 mps 758 mmHg 83%
    22:00 +3°C° 0 mm 4 mps 758 mmHg 83%
    23:00 +3°C° 0 mm 4 mps 758 mmHg 84%

    18 November, Monday

    Time Temperature Precipitation Wind Pressure Humidity
    00:00 +1°C° 0 mm 4 mps 758 mmHg 85%
    01:00 +2°C° 0 mm 3 mps 757 mmHg 87%
    02:00 +2°C° 0 mm 3 mps 757 mmHg 89%
    03:00 +1°C° 0 mm 3 mps 757 mmHg 90%
    04:00 +1°C° 0 mm 3 mps 757 mmHg 91%
    05:00 +1°C° 0 mm 3 mps 757 mmHg 92%
    06:00 +1°C° 0 mm 3 mps 757 mmHg 93%
    07:00 +1°C° 0 mm 3 mps 757 mmHg 93%
    08:00 +1°C° 0 mm 3 mps 757 mmHg 93%
    09:00 +3°C° 0 mm 3 mps 757 mmHg 84%
    10:00 +5°C° 0 mm 3 mps 757 mmHg 75%
    11:00 +7°C° 0 mm 4 mps 757 mmHg 66%
    12:00 +8°C° 0 mm 4 mps 757 mmHg 62%
    13:00 +8°C° 0 mm 4 mps 756 mmHg 59%
    14:00 +10°C° 0 mm 4 mps 756 mmHg 55%
    15:00 +8°C° 0 mm 4 mps 756 mmHg 60%
    16:00 +7°C° 0 mm 3 mps 756 mmHg 65%
    17:00 +5°C° 0 mm 3 mps 756 mmHg 70%
    18:00 +4°C° 0 mm 3 mps 756 mmHg 69%
    19:00 +4°C° 0 mm 3 mps 756 mmHg 68%
    20:00 +3°C° 0 mm 3 mps 756 mmHg 67%
    21:00 +3°C° 0 mm 3 mps 756 mmHg 66%
    22:00 +3°C° 0 mm 3 mps 756 mmHg 65%
    23:00 +2°C° 0 mm 3 mps 756 mmHg 64%
    Show more